FW5354 Weather Reports


time (UTC)temp
C
wind
direction
speed
KPH
gust
KPH
rain 1hr
cm
rain 24hr
cm
rain mn
cm
humidity
%
barometer
mb
20260504220045 26 107 4.8 17.7 0.00 0.00 0.00 60 1008.8
20260504214549 27 101 3.2 8.0 0.00 0.00 0.00 59 1009.0
20260504213048 27 101 1.6 8.0 0.00 0.00 0.00 58 1009.1
20260504211544 27 103 1.6 3.2 0.00 0.00 0.00 57 1009.3
20260504210053 27 110 0.0 6.4 0.00 0.00 0.00 57 1009.4
20260504204618 27 100 3.2 11.3 0.00 0.00 0.00 55 1009.8
20260504203040 28 98 0.0 1.6 0.00 0.00 0.00 54 1009.9
20260504201539 28 115 0.0 4.8 0.00 0.00 0.00 54 1010.2
20260504200038 27 105 0.0 4.8 0.00 0.00 0.00 54 1010.5
20260504194543 27 101 1.6 6.4 0.00 0.00 0.00 55 1010.7
20260504193032 28 105 1.6 6.4 0.00 0.00 0.00 53 1010.9
20260504191530 28 113 0.0 3.2 0.00 0.00 0.00 53 1011.0
20260504190033 27 104 0.0 4.8 0.00 0.00 0.00 57 1011.2
20260504184526 28 102 0.0 8.0 0.00 0.00 0.00 54 1011.5
20260504183027 27 115 0.0 6.4 0.00 0.00 0.00 54 1011.5
20260504181524 27 96 1.6 8.0 0.00 0.00 0.00 57 1011.6
20260504180018 27 104 0.0 8.0 0.00 0.00 0.00 55 1012.1
20260504174518 27 101 3.2 9.7 0.00 0.00 0.00 53 1012.2
20260504173015 26 107 0.0 8.0 0.00 0.00 0.00 56 1012.5
20260504171532 26 96 3.2 9.7 0.00 0.00 0.00 58 1012.6
20260504150104 23 103 0.0 4.8 0.00 0.00 0.00 63 1013.7
20260504081539 16 100 0.0 0.0 0.00 0.00 0.00 75 1014.0
20260504050018 18 100 0.0 0.0 0.00 0.00 0.00 68 1016.1
20260504044523 18 100 0.0 0.0 0.00 0.00 0.00 66 1016.1
20260504043016 18 100 0.0 1.6 0.00 0.00 0.00 64 1016.2
20260504041511 19 104 0.0 1.6 0.00 0.00 0.00 62 1016.3
20260504040010 19 105 1.6 6.4 0.00 0.00 0.00 61 1016.2
20260504034508 20 109 0.0 0.0 0.00 0.00 0.00 60 1016.3
20260504033007 20 99 0.0 0.0 0.00 0.00 0.00 59 1016.4
20260504031504 20 101 0.0 4.8 0.00 0.00 0.00 58 1016.2
20260504030002 20 103 0.0 0.0 0.00 0.00 0.00 57 1016.1
20260504024559 20 98 0.0 0.0 0.00 0.00 0.00 56 1015.8
20260504023057 21 103 0.0 0.0 0.00 0.00 0.00 54 1015.7
20260504021554 21 103 0.0 8.0 0.00 0.00 0.00 52 1015.8
20260504020056 21 105 1.6 8.0 0.00 0.00 0.00 51 1015.6
20260504014602 22 105 1.6 4.8 0.00 0.00 0.00 50 1015.5
20260504013052 22 103 1.6 9.7 0.00 0.00 0.00 49 1015.4
20260504011550 22 102 1.6 6.4 0.00 0.00 0.00 49 1015.3
20260504010048 23 87 0.0 8.0 0.00 0.00 0.00 48 1015.2
20260504004545 23 132 0.0 0.0 0.00 0.00 0.00 46 1015.2
20260504003049 23 105 0.0 0.0 0.00 0.00 0.00 43 1015.2
20260504001542 24 103 0.0 4.8 0.00 0.00 0.00 41 1015.1
20260504000036 25 106 1.6 8.0 0.00 0.00 0.00 40 1015.2
20260503234544 26 121 0.0 0.0 0.00 0.00 0.00 35 1015.4
20260503233034 26 109 0.0 3.2 0.00 0.00 0.00 34 1015.4
20260503231535 26 104 1.6 6.4 0.00 0.00 0.00 33 1015.5
20260503230040 27 97 0.0 6.4 0.00 0.00 0.00 34 1015.5
20260503224532 27 110 1.6 4.8 0.00 0.00 0.00 33 1015.7
20260503223032 26 102 0.0 6.4 0.00 0.00 0.00 34 1015.8
20260503221532 27 103 0.0 0.0 0.00 0.00 0.00 35 1016.0